DLH2PT BIKF-EDDF

Flight info

Callsign DLH2PT
Flight time N/A
Altitude 41000
Route OSKUM3C OSKUM DCT RATSU/N0479F410 DCT DEVBI DCT LONAM DCT SOGPO DCT DIXAT DIXAT2C
Aircraft A359/H-SDE2E3GHIJ3J4J5LM1ORWXY/LB1D1

Departure

Time 2026-04-28 12:00
Airport Keflavik International Airport (BIKF)

Arrival

Time N/A
Airport Frankfurt Main Airport (EDDF)
Time Latitude Longitude Altitude Speed Heading
2026-04-28 11:11 63.99267 -22.62452 148 ft 0 kts 360°
2026-04-28 11:47 63.99243 -22.62452 155 ft 4 kts
2026-04-28 11:48 63.99216 -22.62452 147 ft 4 kts
2026-04-28 11:48 63.99190 -22.62452 147 ft 4 kts 11°
2026-04-28 11:48 63.99173 -22.62478 147 ft 4 kts 81°
2026-04-28 11:48 63.99172 -22.62536 147 ft 2 kts 90°
2026-04-28 11:49 63.99172 -22.62542 147 ft 4 kts 90°
2026-04-28 11:54 63.99172 -22.62486 147 ft 10 kts 90°
2026-04-28 11:55 63.99173 -22.62268 147 ft 15 kts 90°
2026-04-28 11:55 63.99173 -22.62005 147 ft 18 kts 90°
2026-04-28 11:55 63.99172 -22.61720 151 ft 18 kts 90°
2026-04-28 11:55 63.99171 -22.61442 157 ft 17 kts 90°
2026-04-28 11:56 63.99170 -22.61222 161 ft 0 kts 90°
2026-04-28 11:56 63.99170 -22.61220 161 ft 1 kts 90°
2026-04-28 11:56 63.99171 -22.61171 162 ft 6 kts 89°
2026-04-28 11:57 63.99171 -22.61044 165 ft 10 kts 89°
2026-04-28 11:57 63.99171 -22.60991 166 ft 0 kts 90°
2026-04-28 11:57 63.99171 -22.60955 167 ft 6 kts 90°
2026-04-28 11:57 63.99172 -22.60820 170 ft 11 kts 89°
2026-04-28 11:58 63.99173 -22.60643 177 ft 6 kts 89°
2026-04-28 11:58 63.99172 -22.60581 178 ft 2 kts 102°
2026-04-28 11:58 63.99170 -22.60572 179 ft 0 kts 113°
2026-04-28 11:58 63.99159 -22.60547 179 ft 4 kts 140°
2026-04-28 11:59 63.99122 -22.60537 180 ft 6 kts 180°
2026-04-28 11:59 63.99120 -22.60537 180 ft 3 kts 180°
2026-04-28 11:59 63.98882 -22.60542 179 ft 67 kts 180°
2026-04-28 11:59 63.98210 -22.60540 179 ft 123 kts 179°
2026-04-28 12:00 63.97247 -22.60470 609 ft 137 kts 178°
2026-04-28 12:00 63.96307 -22.60410 1450 ft 131 kts 183°
2026-04-28 12:00 63.95329 -22.60358 1915 ft 155 kts 181°
2026-04-28 12:00 63.94167 -22.59669 2177 ft 196 kts 157°
2026-04-28 12:01 63.93148 -22.57210 2460 ft 238 kts 124°
2026-04-28 12:01 63.92762 -22.53434 3080 ft 254 kts 105°
2026-04-28 12:01 63.92447 -22.49485 3835 ft 253 kts 113°
2026-04-28 12:01 63.91938 -22.45617 4442 ft 257 kts 118°
2026-04-28 12:02 63.91322 -22.41759 5064 ft 262 kts 120°
2026-04-28 12:02 63.90883 -22.39197 5468 ft 264 kts 120°
2026-04-28 12:02 63.90194 -22.35308 5948 ft 266 kts 121°
2026-04-28 12:02 63.89487 -22.31406 6060 ft 267 kts 121°
2026-04-28 12:03 63.88777 -22.27521 6044 ft 266 kts 121°
2026-04-28 12:03 63.88060 -22.23634 6048 ft 267 kts 122°
2026-04-28 12:03 63.87342 -22.19774 6050 ft 265 kts 122°
2026-04-28 12:03 63.86615 -22.15904 6046 ft 268 kts 122°
2026-04-28 12:04 63.85879 -22.12006 6051 ft 268 kts 122°
2026-04-28 12:04 63.85150 -22.08150 6049 ft 270 kts 122°
2026-04-28 12:04 63.84401 -22.04191 6052 ft 270 kts 122°
2026-04-28 12:04 63.83759 -22.00214 6052 ft 277 kts 112°
2026-04-28 12:05 63.83430 -21.95873 6058 ft 281 kts 105°
2026-04-28 12:05 63.83194 -21.91462 6057 ft 282 kts 105°
2026-04-28 12:05 63.82962 -21.87051 6069 ft 282 kts 105°
2026-04-28 12:05 63.82724 -21.82627 6072 ft 282 kts 105°
2026-04-28 12:06 63.82482 -21.78220 6072 ft 283 kts 105°
2026-04-28 12:06 63.82233 -21.73786 6218 ft 284 kts 105°
2026-04-28 12:06 63.81981 -21.69339 6693 ft 286 kts 106°
2026-04-28 12:06 63.81729 -21.64885 7010 ft 284 kts 106°
2026-04-28 12:07 63.81477 -21.60455 7077 ft 284 kts 106°
2026-04-28 12:07 63.81224 -21.56078 7080 ft 284 kts 107°
2026-04-28 12:07 63.80966 -21.51639 7082 ft 284 kts 107°
2026-04-28 12:07 63.80707 -21.47202 7079 ft 284 kts 107°
2026-04-28 12:08 63.80454 -21.42786 7251 ft 282 kts 107°
2026-04-28 12:08 63.80192 -21.38377 7841 ft 283 kts 108°
2026-04-28 12:08 63.79926 -21.33940 8492 ft 287 kts 108°
2026-04-28 12:08 63.79654 -21.29429 9130 ft 290 kts 108°
2026-04-28 12:09 63.79380 -21.24883 9687 ft 292 kts 109°
2026-04-28 12:09 63.79106 -21.20323 9895 ft 293 kts 109°
2026-04-28 12:09 63.78816 -21.15639 10131 ft 309 kts 108°
2026-04-28 12:09 63.78509 -21.10734 10458 ft 322 kts 108°
2026-04-28 12:10 63.78192 -21.05614 10796 ft 335 kts 108°
2026-04-28 12:10 63.77821 -21.00385 11111 ft 344 kts 112°
2026-04-28 12:10 63.77249 -20.95064 11331 ft 354 kts 114°
2026-04-28 12:10 63.76601 -20.89578 11563 ft 367 kts 114°
2026-04-28 12:11 63.75938 -20.83957 11992 ft 372 kts 114°
2026-04-28 12:11 63.75269 -20.78272 12528 ft 376 kts 114°
2026-04-28 12:11 63.74593 -20.72544 13037 ft 379 kts 115°
2026-04-28 12:11 63.73909 -20.66766 13548 ft 382 kts 115°
2026-04-28 12:12 63.73219 -20.60965 13993 ft 385 kts 115°
2026-04-28 12:12 63.72519 -20.55103 14432 ft 386 kts 115°
2026-04-28 12:12 63.71826 -20.49320 14951 ft 387 kts 115°
2026-04-28 12:12 63.71030 -20.43554 15409 ft 383 kts 121°
2026-04-28 12:13 63.70043 -20.37970 15895 ft 382 kts 124°
2026-04-28 12:13 63.68959 -20.32496 16373 ft 382 kts 126°
2026-04-28 12:13 63.67826 -20.27054 16865 ft 384 kts 126°
2026-04-28 12:13 63.66674 -20.21605 17365 ft 386 kts 127°
2026-04-28 12:14 63.65520 -20.16134 17828 ft 389 kts 127°
2026-04-28 12:14 63.64364 -20.10620 18262 ft 391 kts 127°
2026-04-28 12:14 63.63203 -20.05040 18648 ft 394 kts 127°
2026-04-28 12:14 63.62044 -19.99446 19040 ft 396 kts 127°
2026-04-28 12:15 63.60892 -19.93880 19410 ft 398 kts 127°
2026-04-28 12:15 63.59720 -19.88222 19754 ft 401 kts 127°
2026-04-28 12:15 63.58526 -19.82497 19961 ft 408 kts 127°
2026-04-28 12:15 63.57317 -19.76697 20356 ft 411 kts 127°
2026-04-28 12:16 63.56101 -19.70865 20691 ft 413 kts 127°
2026-04-28 12:16 63.54879 -19.65023 21118 ft 414 kts 127°
2026-04-28 12:16 63.53648 -19.59165 21480 ft 416 kts 128°
2026-04-28 12:16 63.52404 -19.53272 21769 ft 420 kts 128°
2026-04-28 12:17 63.51146 -19.47334 22068 ft 423 kts 128°
2026-04-28 12:17 63.49874 -19.41348 22403 ft 425 kts 128°
2026-04-28 12:17 63.48616 -19.35436 22746 ft 427 kts 128°
2026-04-28 12:17 63.47332 -19.29418 23078 ft 430 kts 128°
2026-04-28 12:18 63.46038 -19.23369 23380 ft 432 kts 128°
2026-04-28 12:18 63.44732 -19.17284 23665 ft 435 kts 128°
2026-04-28 12:18 63.43418 -19.11176 23928 ft 437 kts 128°
2026-04-28 12:18 63.42099 -19.05061 24193 ft 439 kts 128°
2026-04-28 12:19 63.40767 -18.98906 24458 ft 440 kts 128°
2026-04-28 12:19 63.39430 -18.92748 24729 ft 442 kts 128°
2026-04-28 12:19 63.38083 -18.86557 24994 ft 444 kts 129°
2026-04-28 12:19 63.36728 -18.80348 25269 ft 446 kts 129°
2026-04-28 12:20 63.35362 -18.74112 25542 ft 448 kts 129°
2026-04-28 12:20 63.33990 -18.67867 25811 ft 450 kts 129°
2026-04-28 12:20 63.32608 -18.61595 26092 ft 452 kts 129°
2026-04-28 12:20 63.31218 -18.55305 26345 ft 454 kts 129°
2026-04-28 12:21 63.29820 -18.48998 26615 ft 456 kts 128°
2026-04-28 12:21 63.28408 -18.42647 26918 ft 459 kts 129°
2026-04-28 12:21 63.27005 -18.36357 27218 ft 461 kts 129°
2026-04-28 12:21 63.25577 -18.29971 27526 ft 463 kts 129°
2026-04-28 12:22 63.24135 -18.23543 27836 ft 466 kts 129°
2026-04-28 12:22 63.22681 -18.17080 28151 ft 468 kts 129°
2026-04-28 12:22 63.21217 -18.10594 28509 ft 471 kts 129°
2026-04-28 12:22 63.19740 -18.04073 28753 ft 474 kts 128°
2026-04-28 12:23 63.18253 -17.97529 29066 ft 477 kts 128°
2026-04-28 12:23 63.16754 -17.90947 29411 ft 480 kts 128°
2026-04-28 12:23 63.15246 -17.84339 29759 ft 482 kts 128°
2026-04-28 12:23 63.13748 -17.77793 30092 ft 484 kts 128°
2026-04-28 12:24 63.12215 -17.71116 30425 ft 486 kts 128°
2026-04-28 12:24 63.10681 -17.64455 30764 ft 487 kts 128°
2026-04-28 12:24 63.09142 -17.57792 31062 ft 488 kts 128°
2026-04-28 12:24 63.07591 -17.51104 31372 ft 490 kts 128°
2026-04-28 12:25 63.06031 -17.44396 31660 ft 491 kts 128°
2026-04-28 12:25 63.04465 -17.37690 31955 ft 493 kts 128°
2026-04-28 12:25 63.02889 -17.30957 32217 ft 495 kts 128°
2026-04-28 12:25 63.01307 -17.24220 32490 ft 496 kts 128°
2026-04-28 12:26 62.99718 -17.17471 32803 ft 495 kts 127°
2026-04-28 12:26 62.98129 -17.10742 33157 ft 495 kts 127°
2026-04-28 12:26 62.96543 -17.04035 33551 ft 493 kts 127°
2026-04-28 12:26 62.94958 -16.97359 33983 ft 492 kts 128°
2026-04-28 12:27 62.93376 -16.90716 34346 ft 490 kts 128°
2026-04-28 12:27 62.91793 -16.84095 34699 ft 488 kts 128°
2026-04-28 12:27 62.90233 -16.77592 35042 ft 487 kts 128°
2026-04-28 12:27 62.88653 -16.71030 35383 ft 486 kts 128°
2026-04-28 12:28 62.87074 -16.64490 35707 ft 485 kts 128°
2026-04-28 12:28 62.85491 -16.57960 35960 ft 485 kts 128°
2026-04-28 12:28 62.83901 -16.51427 36213 ft 486 kts 128°
2026-04-28 12:28 62.82311 -16.44902 36537 ft 485 kts 128°
2026-04-28 12:29 62.79139 -16.31929 37141 ft 482 kts 127°
2026-04-28 12:29 62.77549 -16.25455 37394 ft 483 kts 127°
2026-04-28 12:29 62.75962 -16.19016 37680 ft 482 kts 127°
2026-04-28 12:30 62.74368 -16.12570 37982 ft 481 kts 127°
2026-04-28 12:30 62.72783 -16.06176 38274 ft 480 kts 128°
2026-04-28 12:30 62.71191 -15.99774 38557 ft 479 kts 128°
2026-04-28 12:30 62.69623 -15.93487 38810 ft 478 kts 128°
2026-04-28 12:31 62.68033 -15.87130 38994 ft 478 kts 127°
2026-04-28 12:31 62.66438 -15.80773 39133 ft 478 kts 127°
2026-04-28 12:31 62.64837 -15.74414 39276 ft 479 kts 127°
2026-04-28 12:31 62.63228 -15.68039 39412 ft 480 kts 127°
2026-04-28 12:32 62.61620 -15.61687 39577 ft 480 kts 127°
2026-04-28 12:32 62.60008 -15.55331 39713 ft 481 kts 127°
2026-04-28 12:32 62.58408 -15.49044 39851 ft 481 kts 127°
2026-04-28 12:33 62.55154 -15.36315 40054 ft 482 kts 127°
2026-04-28 12:33 62.53518 -15.29940 40198 ft 483 kts 127°
2026-04-28 12:33 62.51883 -15.23585 40327 ft 483 kts 127°
2026-04-28 12:33 62.50245 -15.17234 40451 ft 483 kts 127°
2026-04-28 12:34 62.48602 -15.10885 40574 ft 484 kts 127°
2026-04-28 12:34 62.46955 -15.04539 40697 ft 484 kts 127°
2026-04-28 12:34 62.45303 -14.98195 40805 ft 484 kts 127°
2026-04-28 12:34 62.43670 -14.91939 40924 ft 484 kts 127°
2026-04-28 12:35 62.41993 -14.85532 41024 ft 485 kts 126°
2026-04-28 12:35 62.38679 -14.72934 41145 ft 486 kts 126°
2026-04-28 12:36 62.35326 -14.60255 41143 ft 486 kts 126°
2026-04-28 12:36 62.31965 -14.47610 41160 ft 486 kts 126°
2026-04-28 12:37 62.28594 -14.34997 41168 ft 486 kts 126°
2026-04-28 12:37 62.25210 -14.22414 41176 ft 486 kts 126°
2026-04-28 12:38 62.21815 -14.09861 41177 ft 486 kts 126°
2026-04-28 12:38 62.18429 -13.97410 41184 ft 486 kts 126°
2026-04-28 12:39 62.15011 -13.84914 41180 ft 486 kts 126°
2026-04-28 12:39 62.11578 -13.72433 41185 ft 488 kts 126°
2026-04-28 12:40 62.08127 -13.59955 41212 ft 488 kts 126°
2026-04-28 12:40 62.04669 -13.47517 41206 ft 488 kts 126°
2026-04-28 12:41 62.01193 -13.35081 41212 ft 488 kts 126°
2026-04-28 12:41 61.97734 -13.22774 41225 ft 488 kts 126°
2026-04-28 12:42 61.94236 -13.10401 41220 ft 488 kts 126°
2026-04-28 12:42 61.90728 -12.98058 41198 ft 487 kts 126°
2026-04-28 12:43 61.87224 -12.85800 41234 ft 488 kts 126°
2026-04-28 12:43 61.83688 -12.73490 41235 ft 488 kts 126°
2026-04-28 12:44 61.80149 -12.61233 41254 ft 488 kts 126°
2026-04-28 12:44 61.76595 -12.48994 41254 ft 488 kts 126°
2026-04-28 12:45 61.73030 -12.36786 41255 ft 488 kts 126°
2026-04-28 12:45 61.69452 -12.24597 41269 ft 488 kts 126°
2026-04-28 12:46 61.65871 -12.12463 41247 ft 488 kts 126°
2026-04-28 12:46 61.62299 -12.00424 41277 ft 488 kts 126°
2026-04-28 12:47 61.58691 -11.88325 41281 ft 488 kts 126°
2026-04-28 12:47 61.55075 -11.76263 41282 ft 488 kts 126°
2026-04-28 12:48 61.51443 -11.64213 41291 ft 488 kts 126°
2026-04-28 12:48 61.47804 -11.52204 41295 ft 488 kts 126°
2026-04-28 12:49 61.44155 -11.40222 41293 ft 488 kts 126°
2026-04-28 12:49 61.40520 -11.28350 41297 ft 488 kts 127°
2026-04-28 12:50 61.37447 -11.18363 41312 ft 488 kts 126°
2026-04-28 12:50 61.33766 -11.06451 41312 ft 489 kts 127°
2026-04-28 12:51 61.30094 -10.94634 41317 ft 488 kts 127°
2026-04-28 12:51 61.26393 -10.82781 41317 ft 488 kts 127°
2026-04-28 12:52 61.22676 -10.70941 41327 ft 488 kts 127°
2026-04-28 12:52 61.18949 -10.59129 41328 ft 488 kts 127°
2026-04-28 12:53 61.15218 -10.47362 41340 ft 488 kts 127°
2026-04-28 12:53 61.11497 -10.35690 41341 ft 488 kts 127°
2026-04-28 12:54 61.07746 -10.23980 41346 ft 488 kts 127°
2026-04-28 12:54 61.03987 -10.12308 41352 ft 488 kts 127°
2026-04-28 12:55 61.00287 -10.00544 41350 ft 490 kts 122°
2026-04-28 12:55 60.97257 -9.88005 41349 ft 492 kts 118°
2026-04-28 12:56 60.94345 -9.75168 41367 ft 491 kts 118°
2026-04-28 12:56 60.91486 -9.62520 41370 ft 491 kts 118°
2026-04-28 12:57 60.88583 -9.49819 41374 ft 491 kts 118°
2026-04-28 12:57 60.85659 -9.37156 41383 ft 491 kts 118°
2026-04-28 12:58 60.82718 -9.24506 41382 ft 490 kts 118°
2026-04-28 12:58 60.79767 -9.11882 41383 ft 490 kts 118°
2026-04-28 12:59 60.76828 -8.99380 41397 ft 490 kts 118°
2026-04-28 12:59 60.73860 -8.86832 41386 ft 490 kts 118°
2026-04-28 13:00 60.70496 -8.74767 41406 ft 486 kts 130°
2026-04-28 13:00 60.66319 -8.63951 41414 ft 485 kts 132°
2026-04-28 13:01 60.62005 -8.53389 41413 ft 485 kts 133°
2026-04-28 13:01 60.57669 -8.42872 41416 ft 485 kts 132°
2026-04-28 13:02 60.53364 -8.32420 41417 ft 485 kts 132°
2026-04-28 13:02 60.49034 -8.21922 41411 ft 484 kts 132°
2026-04-28 13:03 60.44696 -8.11447 41423 ft 484 kts 132°
2026-04-28 13:03 60.40352 -8.01005 41428 ft 485 kts 132°
2026-04-28 13:04 60.35989 -7.90566 41434 ft 486 kts 132°
2026-04-28 13:04 60.31616 -7.80152 41434 ft 486 kts 132°
2026-04-28 13:05 60.27269 -7.69846 41445 ft 486 kts 132°
2026-04-28 13:05 60.22872 -7.59469 41449 ft 486 kts 132°
2026-04-28 13:06 60.18473 -7.49136 41455 ft 486 kts 132°
2026-04-28 13:06 60.14064 -7.38823 41460 ft 485 kts 132°
2026-04-28 13:07 60.10379 -7.30237 41459 ft 485 kts 132°
2026-04-28 13:08 60.09026 -7.27094 41462 ft 485 kts 132°
2026-04-28 13:09 60.04633 -7.16917 41470 ft 485 kts 132°
2026-04-28 13:09 60.00212 -7.06724 41467 ft 485 kts 133°
2026-04-28 13:10 59.95774 -6.96533 41464 ft 486 kts 132°
2026-04-28 13:10 59.91329 -6.86373 41465 ft 486 kts 133°
2026-04-28 13:11 59.86874 -6.76234 41472 ft 486 kts 133°
2026-04-28 13:11 59.82436 -6.66178 41469 ft 486 kts 133°
2026-04-28 13:12 59.77963 -6.56089 41474 ft 486 kts 132°
2026-04-28 13:12 59.73478 -6.46018 41478 ft 488 kts 133°
2026-04-28 13:13 59.68968 -6.35935 41478 ft 489 kts 132°
2026-04-28 13:13 59.64452 -6.25878 41482 ft 489 kts 132°
2026-04-28 13:14 59.59907 -6.15807 41483 ft 489 kts 132°
2026-04-28 13:14 59.55379 -6.05814 41490 ft 489 kts 132°
2026-04-28 13:15 59.50870 -5.95908 41488 ft 487 kts 132°
2026-04-28 13:15 59.46338 -5.85992 41489 ft 488 kts 132°
2026-04-28 13:16 59.41785 -5.76080 41491 ft 487 kts 132°
2026-04-28 13:16 59.37241 -5.66223 41492 ft 486 kts 132°
2026-04-28 13:17 59.32690 -5.56395 41495 ft 486 kts 132°
2026-04-28 13:17 59.28159 -5.46653 41494 ft 487 kts 132°
2026-04-28 13:18 59.23594 -5.36880 41497 ft 487 kts 132°
2026-04-28 13:18 59.19026 -5.27143 41497 ft 486 kts 132°
2026-04-28 13:19 59.14443 -5.17415 41497 ft 486 kts 132°
2026-04-28 13:19 59.09863 -5.07734 41500 ft 487 kts 132°
2026-04-28 13:20 59.05256 -4.98037 41499 ft 488 kts 132°
2026-04-28 13:20 59.00635 -4.88352 41498 ft 488 kts 132°
2026-04-28 13:21 58.96005 -4.78690 41494 ft 488 kts 132°
2026-04-28 13:21 58.91404 -4.69129 41492 ft 488 kts 132°
2026-04-28 13:22 58.86765 -4.59528 41492 ft 488 kts 132°
2026-04-28 13:22 58.82124 -4.49964 41493 ft 488 kts 132°
2026-04-28 13:23 58.77466 -4.40406 41501 ft 488 kts 132°
2026-04-28 13:23 58.72803 -4.30880 41487 ft 490 kts 132°
2026-04-28 13:24 58.68146 -4.21400 41486 ft 490 kts 132°
2026-04-28 13:24 58.63452 -4.11889 41481 ft 490 kts 132°
2026-04-28 13:25 58.58752 -4.02403 41483 ft 490 kts 132°
2026-04-28 13:25 58.54050 -3.92954 41483 ft 490 kts 132°
2026-04-28 13:26 58.49335 -3.83517 41480 ft 490 kts 132°
2026-04-28 13:26 58.44611 -3.74103 41484 ft 490 kts 132°
2026-04-28 13:27 58.39874 -3.64703 41502 ft 491 kts 132°
2026-04-28 13:27 58.35131 -3.55328 41497 ft 491 kts 132°
2026-04-28 13:28 58.30412 -3.46039 41494 ft 491 kts 132°
2026-04-28 13:28 58.25649 -3.36701 41500 ft 491 kts 132°
2026-04-28 13:29 58.20880 -3.27390 41508 ft 491 kts 132°
2026-04-28 13:29 58.16109 -3.18114 41531 ft 491 kts 132°
2026-04-28 13:30 58.11332 -3.08866 41514 ft 491 kts 132°
2026-04-28 13:30 58.06550 -2.99644 41516 ft 491 kts 131°
2026-04-28 13:31 57.99387 -2.85898 41512 ft 492 kts 132°
2026-04-28 13:31 57.94584 -2.76730 41513 ft 492 kts 132°
2026-04-28 13:32 57.89772 -2.67579 41513 ft 492 kts 132°
2026-04-28 13:32 57.84947 -2.58445 41512 ft 491 kts 131°
2026-04-28 13:33 57.80132 -2.49362 41511 ft 490 kts 132°
2026-04-28 13:33 57.75344 -2.40369 41520 ft 490 kts 131°
2026-04-28 13:34 57.70507 -2.31319 41510 ft 491 kts 131°
2026-04-28 13:34 57.65664 -2.22293 41507 ft 491 kts 131°
2026-04-28 13:35 57.60818 -2.13297 41531 ft 491 kts 131°
2026-04-28 13:35 57.55976 -2.04347 41531 ft 490 kts 131°
2026-04-28 13:36 57.51156 -1.95470 41527 ft 490 kts 131°
2026-04-28 13:36 57.46289 -1.86543 41535 ft 490 kts 131°
2026-04-28 13:37 57.41459 -1.77721 41549 ft 490 kts 131°
2026-04-28 13:37 57.36590 -1.68859 41540 ft 490 kts 131°
2026-04-28 13:38 57.32540 -1.61516 41538 ft 489 kts 131°
2026-04-28 13:38 57.26881 -1.51293 41538 ft 489 kts 131°
2026-04-28 13:39 57.22806 -1.43962 41537 ft 489 kts 131°
2026-04-28 13:39 57.17922 -1.35205 41543 ft 489 kts 131°
2026-04-28 13:40 57.13067 -1.26534 41542 ft 489 kts 131°
2026-04-28 13:40 57.08177 -1.17836 41560 ft 488 kts 131°
2026-04-28 13:41 57.03295 -1.09187 41543 ft 488 kts 131°
2026-04-28 13:41 56.98399 -1.00543 41543 ft 488 kts 131°
2026-04-28 13:42 56.93506 -0.91937 41543 ft 488 kts 131°
2026-04-28 13:42 56.88601 -0.83344 41543 ft 488 kts 131°
2026-04-28 13:43 56.83691 -0.74776 41553 ft 488 kts 131°
2026-04-28 13:43 56.78778 -0.66236 41544 ft 487 kts 131°
2026-04-28 13:44 56.73904 -0.57794 41543 ft 487 kts 132°
2026-04-28 13:44 56.68991 -0.49318 41541 ft 487 kts 132°
2026-04-28 13:45 56.64067 -0.40853 41539 ft 487 kts 132°
2026-04-28 13:45 56.59132 -0.32401 41537 ft 487 kts 132°
2026-04-28 13:46 56.54195 -0.23980 41539 ft 486 kts 132°
2026-04-28 13:46 56.49303 -0.15667 41536 ft 485 kts 132°
2026-04-28 13:47 56.44372 -0.07316 41534 ft 485 kts 132°
2026-04-28 13:47 56.39439 0.01005 41545 ft 486 kts 132°
2026-04-28 13:48 56.34490 0.09325 41535 ft 486 kts 132°
2026-04-28 13:48 56.29532 0.17627 41535 ft 486 kts 132°
2026-04-28 13:49 56.24570 0.25904 41533 ft 485 kts 132°
2026-04-28 13:49 56.19611 0.34145 41533 ft 485 kts 132°
2026-04-28 13:50 56.14653 0.42356 41531 ft 485 kts 132°
2026-04-28 13:50 56.09682 0.50559 41526 ft 485 kts 132°
2026-04-28 13:51 56.04746 0.58672 41539 ft 485 kts 132°
2026-04-28 13:51 55.99759 0.66842 41513 ft 486 kts 133°
2026-04-28 13:52 55.94759 0.75001 41525 ft 486 kts 133°
2026-04-28 13:52 55.89759 0.83130 41522 ft 486 kts 133°
2026-04-28 13:53 55.84753 0.91239 41518 ft 486 kts 133°
2026-04-28 13:53 55.79739 0.99333 41502 ft 487 kts 133°
2026-04-28 13:54 55.74721 1.07403 41507 ft 486 kts 133°
2026-04-28 13:54 55.69705 1.15440 41514 ft 486 kts 133°
2026-04-28 13:55 55.64713 1.23413 41507 ft 487 kts 133°
2026-04-28 13:55 55.59679 1.31423 41507 ft 487 kts 133°
2026-04-28 13:56 55.54628 1.39429 41503 ft 487 kts 133°
2026-04-28 13:56 55.49571 1.47416 41506 ft 487 kts 133°
2026-04-28 13:57 55.44553 1.55313 41498 ft 486 kts 133°
2026-04-28 13:57 55.39498 1.63241 41494 ft 486 kts 133°
2026-04-28 13:58 55.34442 1.71143 41494 ft 487 kts 133°
2026-04-28 13:58 55.29360 1.79058 41491 ft 488 kts 134°
2026-04-28 13:59 55.25960 1.84336 41492 ft 488 kts 134°